RH
97 95 90 85 84 84 88 94 94 97 99 95 92 89 89 84 83 81 72 52 52 64 78 80 71 66 63 72 71 58 81 81 70 50 39 28 29 24 22 21 18 18 48 44 56
94 97 97 90 86 88 94 97 97 99 100 98 97 94 89 84 84 66 42 57 67 63 63 70 81 63 62 77 83 93 85 71 52 49 42 32 31 28 28 31 27 25 41 55 84
88 88 90 92 93 90 91 93 96 99 100 100 99 98 89 85 68 54 47 65 51 50 48 48 64 67 65 68 86 78 86 54 54 47 44 41 36 32 32 37 31 25 48 62 84
91 88 90 91 93 95 95 96 97 96 100 100 100 100 89 76 80 49 68 68 52 40 38 53 75 83 78 78 63 92 69 63 58 53 50 50 42 42 38 36 31 29 54 57 84
93 93 93 92 91 94 94 93 96 98 99 100 100 99 90 72 74 47 52 50 39 38 38 43 59 76 84 66 58 70 67 67 61 55 54 50 54 51 47 40 35 28 54 56 57
94 94 94 94 90 92 94 96 86 93 95 100 100 98 88 96 57 44 44 44 42 41 40 39 47 48 56 66 64 57 58 57 57 64 53 55 52 48 42 37 36 33 59 58 52
92 96 100 94 90 98 96 87 90 98 93 99 100 98 86 76 54 58 56 53 46 46 44 38 38 44 55 69 61 67 83 70 64 54 62 59 72 66 42 38 35 34 48 57 54
92 87 85 86 83 80 84 90 86 79 86 100 99 93 95 69 64 63 56 51 44 42 44 38 38 42 46 49 57 72 80 91 57 55 51 59 79 51 47 41 38 36 41 56 56
82 79 82 80 85 87 92 92 90 99 100 100 92 87 88 64 59 46 53 52 39 39 39 37 40 54 53 68 82 72 94 86 70 44 47 58 67 48 44 41 38 35 37 48 56
84 88 85 86 87 92 99 94 100 96 96 94 93 87 78 60 45 36 29 27 22 23 35 42 55 69 68 78 87 70 73 64 68 62 60 54 59 48 48 45 39 36 36 40 59
90 90 89 89 91 75 100 95 82 85 83 72 78 70 53 70 72 44 38 28 23 26 35 45 64 81 68 63 60 66 76 97 88 62 62 78 81 59 43 47 46 38 35 37 39
90 91 90 97 92 79 88 88 75 73 87 66 73 68 61 62 82 58 36 36 33 46 34 42 65 49 45 56 65 68 77 78 57 48 58 74 70 62 48 44 37 39 38 36 33
90 89 91 98 99 89 87 83 74 69 93 81 66 64 64 58 69 38 29 32 42 42 38 45 39 29 34 39 54 63 73 69 69 55 49 57 67 51 48 43 40 36 33 34 31
93 90 93 99 92 88 94 81 74 72 99 71 52 43 40 36 44 28 31 41 48 50 45 38 29 34 36 40 36 52 32 34 44 54 93 53 72 54 41 42 41 38 38 34 32
81 91 90 100 90 87 84 78 81 84 95 49 43 31 36 50 44 29 32 40 50 46 41 52 38 33 42 38 35 45 39 40 42 55 60 64 87 64 54 55 47 43 41 36 32
78 97 98 94 92 92 80 85 85 84 90 51 51 65 64 47 38 24 36 38 39 49 47 47 27 34 37 34 34 32 42 51 52 57 85 73 67 64 50 42 38 42 40 37 36
78 91 89 91 96 84 84 88 89 88 67 68 53 49 54 42 28 25 34 37 40 56 57 44 37 29 29 35 37 42 67 94 91 100 74 44 63 53 43 30 30 33 34 40 38
88 81 95 89 87 86 90 88 91 76 78 76 81 75 70 36 37 41 39 43 36 40 76 68 51 34 41 41 49 46 63 94 98 93 88 59 65 46 32 28 27 35 32 36 39
75 84 96 99 91 88 91 96 84 80 80 87 80 84 49 46 53 47 48 50 43 59 59 82 66 47 40 40 41 58 87 62 79 77 86 67 41 28 20 25 38 31 30 35 38
74 94 99 97 96 84 94 88 86 82 86 82 91 88 84 48 54 71 60 45 54 57 69 86 78 51 48 37 42 49 63 86 95 97 88 77 58 43 38 43 36 31 38 35 33
80 97 94 94 96 94 98 90 83 79 78 88 88 92 62 67 67 70 61 49 47 58 64 91 80 65 49 51 63 76 78 81 96 96 91 83 49 28 29 23 41 42 52 53 50
93 100 98 98 100 100 95 82 67 76 85 86 92 81 80 57 73 76 66 52 51 52 65 71 94 99 75 53 50 44 88 90 95 88 89 89 53 48 51 61 65 58 63 52 46
100 100 100 98 99 97 94 91 75 81 81 83 83 77 69 62 78 68 56 47 57 66 76 69 89 99 70 62 46 70 50 80 89 94 89 96 77 49 43 48 69 71 59 61 62
100 99 100 100 99 94 90 92 91 74 76 74 84 77 86 78 59 70 68 57 58 64 53 62 88 79 80 69 78 84 76 64 81 94 75 77 73 42 44 81 76 79 72 77 70
100 98 94 98 97 97 93 97 94 96 89 80 95 89 88 97 80 73 59 61 51 49 61 78 96 94 85 71 75 76 72 68 78 73 80 64 51 41 82 79 76 91 76 72 68
97 100 100 100 98 99 96 96 90 80 98 94 96 73 85 94 68 74 66 69 68 65 85 92 87 78 82 65 56 55 50 48 51 74 84 65 57 71 69 66 73 96 87 76 70
99 99 100 82 96 98 94 86 88 97 95 71 79 83 81 80 64 64 58 58 53 70 85 91 94 96 81 61 60 70 58 73 82 86 89 90 90 72 73 66 87 97 94 93 79
Wind_Speed
27 27 28 29 31 32 33 30 28 26 23 21 19 19 20 23 30 28 17 15 7 14 17 18 19 22 13 4 7 6 7 19 25 18 14 8 4 4 3 6 5 6 9 6 35
30 30 32 33 34 36 36 35 34 32 26 24 21 17 18 21 28 26 13 6 6 12 10 12 9 5 5 5 5 8 13 28 5 19 5 14 15 19 4 7 7 4 2 26 36
31 32 34 35 35 35 36 37 38 38 34 26 21 16 12 17 8 7 13 8 8 7 11 15 16 5 11 9 6 9 25 23 14 21 13 14 17 5 4 12 9 8 6 20 24
32 33 34 35 37 37 37 38 39 39 40 31 21 14 7 6 9 3 18 6 15 10 10 5 4 6 6 15 16 14 21 21 16 8 12 14 15 20 7 8 7 6 7 22 21
35 36 36 35 37 36 37 36 38 40 43 39 21 12 3 3 11 22 18 25 13 5 0 1 4 6 8 10 16 22 23 14 14 21 19 16 20 16 16 10 10 5 6 15 22
37 38 38 37 38 39 39 34 37 36 38 41 21 13 6 7 12 6 8 11 14 10 8 2 3 5 8 6 14 8 13 17 18 19 17 24 24 12 22 10 13 8 11 13 20
37 35 37 38 37 34 32 32 34 34 30 29 19 13 10 23 7 15 24 31 27 23 7 15 10 2 6 5 6 10 18 18 18 13 18 13 16 22 19 15 12 8 10 14 17
35 38 34 34 35 33 30 30 32 34 28 13 14 7 7 15 23 28 27 23 21 19 20 17 16 7 6 6 8 7 10 17 23 19 11 7 21 22 14 12 15 11 10 11 16
36 34 34 32 33 30 30 28 24 8 16 16 8 3 9 9 9 14 14 11 15 12 17 16 7 5 3 5 5 8 9 10 13 17 10 16 25 21 9 12 18 15 9 10 13
35 32 31 30 28 28 14 16 6 13 13 11 11 3 6 4 1 8 3 4 3 6 5 4 4 4 5 5 12 9 10 11 14 3 14 17 26 17 7 12 19 15 11 9 12
34 31 29 27 28 27 16 2 2 2 2 7 8 3 8 8 10 8 16 12 4 1 3 4 3 9 13 14 12 13 17 14 14 14 12 16 21 19 13 15 13 16 17 10 11
34 31 27 26 21 15 9 1 2 2 5 7 12 13 22 11 8 15 19 6 4 11 4 3 11 10 9 11 12 14 17 26 17 16 14 17 20 18 11 9 19 17 15 15 11
33 29 23 19 13 6 1 1 2 2 2 5 3 5 6 6 5 7 5 5 5 4 6 5 8 1 8 10 14 16 16 15 17 18 15 17 24 20 16 15 12 13 18 14 17
31 23 17 12 1 6 2 5 4 3 1 0 2 4 3 4 4 7 6 4 2 4 4 6 6 4 5 5 8 8 8 10 13 9 4 4 14 8 7 15 13 13 12 17 17
25 17 10 5 10 2 5 7 4 0 4 2 1 4 2 4 7 2 6 3 4 5 1 6 7 10 7 5 4 6 5 11 12 9 9 16 8 5 6 12 13 14 12 12 17
25 8 6 7 7 7 13 6 2 5 3 4 3 3 5 7 5 5 2 1 3 5 4 8 3 4 7 7 5 11 8 9 5 5 7 14 11 7 12 21 14 10 13 12 11
19 7 6 3 5 15 7 3 5 4 2 2 2 5 7 5 3 3 4 1 3 3 3 4 4 3 2 1 4 4 4 3 4 2 11 9 10 19 8 15 21 19 17 10 9
12 9 12 13 21 5 5 4 5 4 3 1 3 7 5 4 2 3 2 3 4 3 1 2 5 4 2 4 4 4 6 3 5 2 5 10 8 13 16 24 22 10 13 10 11
7 15 8 13 4 10 2 4 5 4 2 2 2 2 3 3 4 4 1 3 2 3 5 1 5 2 1 1 3 3 3 4 8 15 10 5 19 19 25 24 12 18 18 15 13
2 5 3 7 8 7 3 4 2 1 4 1 3 2 4 2 1 3 1 3 1 3 3 2 6 3 2 4 4 1 2 3 3 4 6 6 14 9 13 6 5 11 13 17 16
2 2 6 5 2 1 2 5 3 2 3 4 4 3 6 3 4 4 4 4 3 3 4 3 3 6 5 3 4 4 2 3 3 6 4 3 9 5 15 21 10 8 6 5 8
2 2 11 5 1 1 2 4 3 5 2 4 2 5 4 3 3 4 7 6 4 5 4 4 3 5 7 7 5 2 6 4 2 8 6 5 13 3 12 12 13 14 6 6 6
0 1 8 3 3 3 4 4 4 5 6 6 6 8 5 3 3 6 4 5 8 5 5 5 1 3 8 6 5 2 4 3 3 8 12 7 4 15 18 20 18 17 13 7 8
2 2 1 2 1 3 4 5 4 4 5 6 4 7 3 6 7 5 3 3 6 4 7 4 3 6 6 7 3 5 10 13 6 4 10 14 19 25 19 19 22 24 13 8 10
2 2 2 2 5 10 5 2 4 4 7 9 4 14 7 5 4 11 11 8 4 4 3 5 4 5 6 7 6 12 18 17 11 13 11 22 17 16 14 18 18 17 19 15 14
3 2 2 2 3 7 8 6 8 11 7 6 12 10 13 10 10 6 4 5 6 2 4 2 3 2 10 8 11 16 15 17 13 8 9 17 16 15 16 16 17 15 19 20 19
3 2 2 4 3 4 5 7 8 3 9 14 14 11 14 19 15 12 9 5 4 7 5 5 4 2 8 2 12 10 3 4 3 4 5 7 9 18 19 21 16 14 20 20 20
Wind_Direction
315 313 312 314 309 306 303 298 296 288 281 281 281 290 302 308 309 309 276 254 231 265 286 291 276 278 269 235 217 167 227 234 228 220 219 208 243 202 293 273 269 204 159 192 148
317 312 309 309 307 305 302 299 293 284 274 271 273 280 297 313 312 293 274 163 251 286 275 265 260 247 232 227 216 211 224 234 216 228 220 236 258 273 290 300 299 293 0 133 146
320 314 310 308 306 305 304 302 298 291 281 269 266 270 294 320 318 248 153 147 327 288 278 277 237 194 230 233 203 223 235 229 258 232 248 254 254 257 267 279 247 273 192 154 157
318 314 313 311 309 304 301 299 296 295 286 268 258 254 273 336 297 253 183 302 335 296 299 295 174 202 217 221 226 253 243 245 254 243 246 240 259 259 203 240 260 309 236 162 166
317 315 314 313 312 308 305 303 300 292 288 273 248 231 170 217 245 265 253 276 303 310 239 20 219 215 232 234 232 239 247 264 258 245 252 264 254 255 268 254 268 246 208 194 176
319 317 314 308 317 310 305 301 306 295 292 273 226 197 162 245 257 260 280 290 275 291 283 267 250 305 289 260 246 281 270 264 256 256 240 244 261 274 258 246 261 191 201 215 187
322 321 317 317 318 314 311 307 304 302 298 286 203 185 193 231 247 279 278 283 278 269 259 265 249 252 340 281 285 270 266 275 263 262 254 255 262 244 255 257 254 208 211 209 208
323 321 324 320 318 320 315 311 306 300 295 209 171 178 242 269 274 275 274 279 276 264 252 259 255 234 229 298 316 261 239 247 251 247 248 202 260 251 235 248 246 250 206 204 220
323 323 322 323 322 322 317 317 314 306 154 146 117 117 277 289 270 282 255 246 285 270 248 255 211 187 218 223 268 232 261 253 265 238 226 212 258 257 243 242 247 245 206 208 218
324 324 325 325 325 328 318 323 118 98 91 91 93 30 266 251 300 340 41 301 299 334 323 226 161 172 195 191 234 237 254 258 254 270 244 235 248 249 251 237 239 240 249 202 206
325 324 325 326 327 327 282 280 259 119 303 202 186 252 24 17 332 288 307 325 309 290 237 287 241 221 218 222 253 286 290 271 281 285 306 226 267 281 245 236 251 242 236 223 210
326 324 324 328 324 328 327 335 49 296 290 278 273 241 278 280 296 277 274 227 215 257 229 258 265 252 256 235 243 251 259 270 287 270 273 292 276 255 266 248 236 234 236 233 225
327 323 324 323 300 311 136 177 79 56 330 309 232 250 240 208 239 288 179 181 213 241 199 191 242 198 224 247 255 252 256 279 275 290 274 292 280 267 262 269 262 246 231 228 232
328 325 323 304 155 119 47 142 150 166 317 284 250 260 206 215 238 217 219 184 252 257 217 225 252 341 273 303 277 278 271 286 295 313 272 213 275 270 243 240 245 243 236 232 228
351 340 333 206 131 124 178 169 198 100 6 238 106 175 190 237 310 245 186 129 239 260 63 267 316 327 320 253 303 256 325 313 294 285 274 274 273 263 198 264 245 246 239 236 234
14 52 78 110 82 124 153 178 269 46 271 341 50 310 306 256 263 297 227 218 236 239 236 242 273 235 231 254 261 275 296 295 254 238 248 236 235 236 230 238 252 250 246 239 231
5 39 52 60 148 148 162 300 38 110 271 270 303 323 301 276 282 325 320 273 239 356 328 330 256 263 212 274 351 66 39 326 336 167 241 201 226 241 263 234 237 242 245 250 237
40 39 68 109 136 130 304 45 79 225 217 29 339 318 274 357 344 351 358 288 267 189 114 129 311 197 302 158 189 194 144 176 303 244 332 334 228 242 235 241 244 239 235 235 244
27 57 72 125 91 354 37 60 209 217 163 217 309 315 279 1 193 8 326 261 293 31 169 46 255 339 91 83 104 270 160 218 258 255 264 236 271 275 286 256 236 236 236 244 236
67 65 7 160 9 11 61 239 238 114 123 189 183 197 265 280 340 72 268 265 42 39 95 222 316 345 12 347 59 18 213 339 251 253 234 223 243 242 291 312 281 257 250 247 244
25 72 189 200 350 3 173 232 229 203 152 187 201 238 251 273 199 204 237 276 200 147 86 120 123 298 5 37 348 4 334 343 294 239 221 249 256 193 236 256 304 315 328 347 331
327 264 177 146 231 255 239 212 214 181 182 242 249 253 223 254 263 237 221 218 130 151 172 184 158 273 251 288 178 235 196 132 272 301 288 227 263 64 25 25 355 330 305 313 300
54 324 167 155 220 221 278 262 231 181 190 195 234 221 209 253 246 221 232 233 212 169 185 178 226 329 332 2 343 322 284 187 264 269 263 268 272 360 347 349 347 335 321 314 326
136 273 229 200 285 257 254 237 230 215 217 198 236 212 220 250 230 274 247 265 141 164 191 130 173 179 209 216 171 290 278 289 251 268 296 292 301 311 335 342 334 325 316 325 347
183 236 217 205 227 228 227 234 217 234 217 201 239 216 193 227 230 236 237 261 275 222 186 141 202 208 232 245 249 261 277 285 273 253 264 277 281 303 337 330 325 349 341 338 357
200 215 181 251 228 209 219 212 235 242 201 216 232 211 213 217 208 209 188 192 208 18 141 8 251 272 280 243 261 280 288 283 279 315 282 266 278 354 337 332 333 333 340 342 351
180 128 215 244 243 182 207 222 228 236 232 233 221 235 231 234 229 247 251 237 188 166 192 152 145 87 276 357 310 287 319 315 125 37 347 0 333 334 331 331 332 344 351 338 339